RADIX

Last updated on Wed Apr 08 2020 00:02:10 GMT+0000 (Coordinated Universal Time)

1 43550U 98067NY 20097.88977430 .06840374 12338-4 81014-3 0 9991 2 43550 51.6154 263.5421 0011233 295.6312 64.3552 16.35532541 99459

Satellite not in orbit